Weather History for KFLP - January, 2009

Change the Weather History Date:

Wednesday, January 7, 2009

  Actual Average Record
Temperature  
Mean Temperature 42 °F -  
Max Temperature 51 °F 45 °F 69 °F (2008)
Min Temperature 33 °F 26 °F 0 °F (2014)
Degree Days  
Heating Degree Days 23    
Moisture  
Dew Point 22 °F    
Average Humidity 50    
Maximum Humidity 75    
Minimum Humidity 22    
Precipitation  
Precipitation 0.00 in - - ()
Sea Level Pressure  
Sea Level Pressure 29.63 in    
Wind  
Wind Speed 10 mph (West)    
Max Wind Speed 18 mph    
Max Gust Speed 26 mph    
Visibility 10 miles    
Events      
Averages and records for this station are not official NWS values.
T = Trace of Precipitation, MM = Missing Value Source: NWS Daily Summary

Daily Weather History Graph

Daily Weather History Graph

Search for Another Location

Airport or City:

Trip Planner

Search our weather history database for the weather conditions in past years. The results will help you decide how hot, cold, wet, or windy it might be!

Date:

Astronomy

Jan. 07, 2009 Rise Set
Actual Time 7:22 AM CST 5:11 PM CST
Civil Twilight 6:53 AM CST 5:40 PM CST
Nautical Twilight 6:21 AM CST 6:11 PM CST
Astronomical Twilight 5:50 AM CST 6:43 PM CST
Moon 1:31 PM CST (1/7) 3:42 AM CST (1/7)
Length of Visible Light 10h 46m
Length of Day
9h 49m
Waxing Gibbous, 84% of the Moon is Illuminated
Jan 7
Waxing Gibbous
Jan 10
Full
Jan 17
Last Quarter
Jan 26
New
Feb 2
First Quarter

Hourly Weather History & Observations

Time (CST) Temp. Windchill Dew Point Humidity Pressure Visibility Wind Dir Wind Speed Gust Speed Precip Events Conditions
12:15 AM 35.6 °F 29.9 °F 28.4 °F 75% 29.58 in 10.0 mi West 6.9 mph - N/A   Overcast
12:35 AM 35.6 °F 29.9 °F 26.6 °F 70% 29.58 in 10.0 mi West 6.9 mph - N/A   Overcast
12:55 AM 35.6 °F 29.9 °F 26.6 °F 70% 29.57 in 10.0 mi West 6.9 mph - N/A   Overcast
1:15 AM 35.6 °F 27.5 °F 24.8 °F 65% 29.57 in 10.0 mi West 11.5 mph - N/A   Scattered Clouds
1:35 AM 35.6 °F 27.1 °F 24.8 °F 65% 29.57 in 10.0 mi West 12.7 mph - N/A   Clear
1:55 AM 35.6 °F 27.1 °F 24.8 °F 65% 29.57 in 10.0 mi West 12.7 mph 16.1 mph N/A   Clear
2:15 AM 33.8 °F 26.4 °F 23.0 °F 65% 29.57 in 10.0 mi West 9.2 mph - N/A   Clear
2:35 AM 33.8 °F 27.0 °F 23.0 °F 65% 29.57 in 10.0 mi West 8.1 mph - N/A   Clear
2:55 AM 33.8 °F 27.7 °F 23.0 °F 65% 29.58 in 10.0 mi West 6.9 mph - N/A   Clear
3:15 AM 33.8 °F 27.0 °F 23.0 °F 65% 29.58 in 10.0 mi West 8.1 mph - N/A   Clear
3:35 AM 33.8 °F 27.7 °F 24.8 °F 70% 29.57 in 10.0 mi WSW 6.9 mph - N/A   Clear
3:55 AM 33.8 °F 28.6 °F 24.8 °F 70% 29.57 in 10.0 mi WSW 5.8 mph - N/A   Scattered Clouds
4:15 AM 33.8 °F 25.8 °F 24.8 °F 70% 29.57 in 10.0 mi WSW 10.4 mph - N/A   Overcast
4:35 AM 33.8 °F 25.8 °F 23.0 °F 65% 29.57 in 10.0 mi WSW 10.4 mph - N/A   Overcast
4:55 AM 33.8 °F 27.0 °F 23.0 °F 65% 29.57 in 10.0 mi WSW 8.1 mph - N/A   Overcast
5:15 AM 33.8 °F 27.7 °F 23.0 °F 65% 29.58 in 10.0 mi West 6.9 mph - N/A   Overcast
5:35 AM 33.8 °F 27.0 °F 23.0 °F 65% 29.58 in 10.0 mi West 8.1 mph - N/A   Mostly Cloudy
5:55 AM 33.8 °F 27.0 °F 21.2 °F 60% 29.58 in 10.0 mi WSW 8.1 mph - N/A   Partly Cloudy
6:15 AM 33.8 °F 30.8 °F 19.4 °F 56% 29.59 in 10.0 mi West 3.5 mph - N/A   Clear
6:35 AM 33.8 °F 29.6 °F 21.2 °F 60% 29.60 in 10.0 mi WSW 4.6 mph - N/A   Mostly Cloudy
6:55 AM 35.6 °F 28.0 °F 21.2 °F 56% 29.63 in 10.0 mi WNW 10.4 mph 16.1 mph N/A   Overcast
7:15 AM 37.4 °F 27.5 °F 23.0 °F 56% 29.63 in 10.0 mi West 18.4 mph 21.9 mph N/A   Mostly Cloudy
7:35 AM 37.4 °F 30.3 °F 24.8 °F 60% 29.63 in 10.0 mi West 10.4 mph - N/A   Mostly Cloudy
7:55 AM 35.6 °F 29.2 °F 24.8 °F 65% 29.63 in 10.0 mi West 8.1 mph - N/A   Partly Cloudy
8:15 AM 37.4 °F 30.3 °F 24.8 °F 60% 29.65 in 10.0 mi West 10.4 mph - N/A   Partly Cloudy
8:35 AM 37.4 °F 29.8 °F 26.6 °F 65% 29.65 in 10.0 mi West 11.5 mph - N/A   Clear
8:55 AM 39.2 °F 31.2 °F 26.6 °F 61% 29.65 in 10.0 mi West 13.8 mph - N/A   Partly Cloudy
9:15 AM 39.2 °F 31.6 °F 26.6 °F 61% 29.67 in 10.0 mi West 12.7 mph - N/A   Clear
9:35 AM 41.0 °F 34.3 °F 26.6 °F 57% 29.67 in 10.0 mi WNW 11.5 mph 16.1 mph N/A   Clear
9:55 AM 42.8 °F 36.6 °F 26.6 °F 53% 29.68 in 10.0 mi WNW 11.5 mph 17.3 mph N/A   Clear
10:15 AM 42.8 °F 35.4 °F 24.8 °F 49% 29.68 in 10.0 mi West 15.0 mph 21.9 mph N/A   Clear
10:35 AM 44.6 °F 37.4 °F 26.6 °F 49% 29.68 in 10.0 mi West 16.1 mph 21.9 mph N/A   Clear
10:55 AM 44.6 °F 37.2 °F 24.8 °F 46% 29.68 in 10.0 mi WNW 17.3 mph 24.2 mph N/A   Clear
11:15 AM 46.4 °F 39.2 °F 24.8 °F 43% 29.68 in 10.0 mi West 18.4 mph 25.3 mph N/A   Clear
11:35 AM 46.4 °F 40.4 °F 23.0 °F 40% 29.68 in 10.0 mi West 13.8 mph 24.2 mph N/A   Clear
11:55 AM 48.2 °F - 21.2 °F 34% 29.68 in 10.0 mi WNW 18.4 mph 23.0 mph N/A   Clear
12:15 PM 48.2 °F - 21.2 °F 34% 29.67 in 10.0 mi WNW 15.0 mph 26.5 mph N/A   Clear
12:35 PM 48.2 °F - 21.2 °F 34% 29.67 in 10.0 mi WNW 17.3 mph 24.2 mph N/A   Clear
12:55 PM 50.0 °F - 21.2 °F 32% 29.67 in 10.0 mi West 18.4 mph 21.9 mph N/A   Clear
1:15 PM 50.0 °F - 19.4 °F 30% 29.66 in 10.0 mi WNW 17.3 mph 25.3 mph N/A   Clear
1:35 PM 51.8 °F - 17.6 °F 26% 29.65 in 10.0 mi WNW 10.4 mph 20.7 mph N/A   Clear
1:55 PM 51.8 °F - 17.6 °F 26% 29.65 in 10.0 mi West 13.8 mph - N/A   Clear
2:15 PM 51.8 °F - 15.8 °F 24% 29.64 in 10.0 mi WNW 13.8 mph 20.7 mph N/A   Clear
2:35 PM 51.8 °F - 17.6 °F 26% 29.64 in 10.0 mi West 11.5 mph - N/A   Clear
2:55 PM 51.8 °F - 17.6 °F 26% 29.64 in 10.0 mi WNW 12.7 mph 18.4 mph N/A   Scattered Clouds
3:15 PM 51.8 °F - 14.0 °F 22% 29.64 in 10.0 mi West 9.2 mph 21.9 mph N/A   Mostly Cloudy
3:35 PM 50.0 °F - 15.8 °F 26% 29.64 in 10.0 mi West 10.4 mph - N/A   Mostly Cloudy
3:55 PM 50.0 °F - 17.6 °F 28% 29.65 in 10.0 mi West 11.5 mph - N/A   Mostly Cloudy
4:15 PM 50.0 °F - 17.6 °F 28% 29.65 in 10.0 mi WNW 15.0 mph - N/A   Overcast
4:35 PM 48.2 °F - 17.6 °F 30% 29.65 in 10.0 mi West 5.8 mph - N/A   Overcast
4:55 PM 48.2 °F - 17.6 °F 30% 29.65 in 10.0 mi West 5.8 mph - N/A   Scattered Clouds
5:15 PM 48.2 °F - 17.6 °F 30% 29.65 in 10.0 mi NW 3.5 mph - N/A   Clear
5:35 PM 46.4 °F - 17.6 °F 32% 29.65 in 10.0 mi Calm Calm - N/A   Scattered Clouds
5:55 PM 46.4 °F - 17.6 °F 32% 29.66 in 10.0 mi Calm Calm - N/A   Overcast
6:15 PM 42.8 °F - 19.4 °F 39% 29.66 in 10.0 mi Calm Calm - N/A   Overcast
6:35 PM 42.8 °F - 21.2 °F 42% 29.66 in 10.0 mi Calm Calm - N/A   Overcast
6:55 PM 42.8 °F - 19.4 °F 39% 29.67 in 10.0 mi Calm Calm - N/A   Overcast
7:15 PM 42.8 °F - 21.2 °F 42% 29.67 in 10.0 mi Calm Calm - N/A   Overcast
7:35 PM 42.8 °F - 21.2 °F 42% 29.68 in 10.0 mi Calm Calm - N/A   Overcast
7:55 PM 44.6 °F 43.1 °F 21.2 °F 39% 29.68 in 7.0 mi WSW 3.5 mph - N/A   Overcast
8:15 PM 44.6 °F - 19.4 °F 37% 29.68 in 10.0 mi Calm Calm - N/A   Overcast
8:35 PM 44.6 °F - 19.4 °F 37% 29.68 in 10.0 mi Calm Calm - N/A   Overcast
8:55 PM 44.6 °F 43.1 °F 19.4 °F 37% 29.69 in 10.0 mi NNE 3.5 mph - N/A   Overcast
9:15 PM 41.0 °F - 24.8 °F 53% 29.69 in 10.0 mi Calm Calm - N/A   Overcast
9:35 PM 41.0 °F 39.0 °F 23.0 °F 49% 29.69 in 10.0 mi NNE 3.5 mph - N/A   Overcast
9:55 PM 41.0 °F - 23.0 °F 49% 29.69 in 10.0 mi Calm Calm - N/A   Overcast
10:15 PM 39.2 °F - 24.8 °F 56% 29.70 in 10.0 mi Calm Calm - N/A   Overcast
10:35 PM 39.2 °F 35.9 °F 24.8 °F 56% 29.69 in 10.0 mi NNE 4.6 mph - N/A   Overcast
10:55 PM 39.2 °F - 24.8 °F 56% 29.69 in 10.0 mi Calm Calm - N/A   Mostly Cloudy
11:15 PM 37.4 °F - 24.8 °F 60% 29.69 in 10.0 mi Calm Calm - N/A   Partly Cloudy
11:35 PM 39.2 °F - 21.2 °F 49% 29.69 in 10.0 mi Calm Calm - N/A   Clear
11:55 PM 37.4 °F - 23.0 °F 56% 29.69 in 10.0 mi Calm Calm - N/A   Clear